period_start,C,m1,H,J0,J1,J2,J3,J4,J5,JA,JB,JC,JD,JJ,JK,JN,#
2017-06-19 00:04:13,0.00,0.53,0.00,24.36,28.47,31.06,13.72,46.34,1007.97,2026.18,3281.17,2942.09,3357.01,599.91,588.02,34.21,0000 0000 0000 0000 000000
2017-06-19 00:09:14,0.06,0.54,0.00,24.41,28.45,31.09,13.69,46.13,1007.96,2026.69,3281.00,2942.04,3357.00,599.44,587.62,34.26,0000 0000 0000 0000 000000
2017-06-19 00:14:15,0.02,0.54,0.00,24.44,28.45,31.06,13.71,46.29,1007.86,2026.89,3280.96,2942.01,3357.00,599.42,587.51,34.31,0000 0000 0000 0000 000000
2017-06-19 00:19:16,0.00,0.54,0.00,24.44,28.43,31.02,13.77,46.38,1007.86,2026.95,3280.69,2942.01,3356.97,600.35,588.42,34.36,0000 0000 0000 0000 000000
2017-06-19 00:24:18,0.01,0.54,0.00,24.50,28.42,30.91,13.78,46.61,1007.85,2026.92,3280.12,2942.00,3356.73,600.38,588.35,34.41,0000 0000 0000 0000 000000
2017-06-19 00:29:19,0.01,0.54,0.00,24.58,28.44,30.91,13.73,46.28,1007.96,2026.90,3280.00,2941.98,3356.15,599.90,587.74,34.46,0000 0000 0000 0000 000000
2017-06-19 00:34:20,0.00,0.54,0.00,24.66,28.45,30.91,13.69,46.29,1007.93,2026.75,3279.78,2941.52,3356.00,599.83,587.46,34.51,0000 0000 0000 0000 000000
2017-06-19 00:39:22,0.01,0.54,0.00,24.74,28.46,30.93,13.84,46.31,1007.88,2026.67,3279.08,2941.06,3355.95,600.02,587.52,34.56,0000 0000 0000 0000 000000
2017-06-19 00:44:23,-0.01,0.54,0.00,24.81,28.48,30.96,13.74,46.24,1007.85,2026.43,3278.97,2941.00,3355.34,599.80,587.10,34.61,0000 0000 0000 0000 000000
2017-06-19 00:49:24,-0.01,0.54,0.00,24.82,28.50,30.99,13.72,46.30,1007.84,2026.16,3278.44,2940.97,3355.01,600.15,587.28,34.66,0000 0000 0000 0000 000000
2017-06-19 00:54:25,0.01,0.54,0.00,24.79,28.52,31.05,13.63,46.15,1007.83,2026.09,3278.00,2940.66,3354.98,599.96,587.30,34.71,0000 0000 0000 0000 000000
2017-06-19 00:59:27,0.02,0.54,0.00,24.71,28.55,31.10,13.70,46.30,1007.83,2026.03,3277.92,2940.15,3354.60,599.88,587.55,34.77,0000 0000 0000 0000 000000
2017-06-19 01:04:28,0.02,0.54,0.00,24.63,28.55,31.18,13.77,46.34,1007.83,2026.01,3277.19,2940.01,3354.05,600.51,588.14,34.82,0000 0000 0000 0000 000000
2017-06-19 01:09:29,0.00,0.54,0.00,24.57,28.57,31.23,13.74,46.29,1007.82,2026.04,3276.99,2940.00,3354.00,599.98,587.72,34.87,0000 0000 0000 0000 000000
2017-06-19 01:14:30,0.01,0.54,0.00,24.52,28.57,31.25,13.72,46.27,1007.82,2026.08,3276.72,2940.00,3353.99,600.17,588.09,34.92,0000 0000 0000 0000 000000
2017-06-19 01:19:32,0.01,0.54,0.00,24.47,28.57,31.25,13.78,46.18,1007.82,2026.10,3276.08,2939.99,3353.90,600.11,588.03,34.97,0000 0000 0000 0000 000000
2017-06-19 01:24:33,0.02,0.54,0.00,24.43,28.55,31.23,13.73,46.07,1007.83,2026.29,3276.00,2939.98,3353.53,599.99,588.03,35.02,0000 0000 0000 0000 000000
2017-06-19 01:29:35,0.03,0.55,0.00,24.41,28.55,31.23,13.65,46.15,1007.82,2026.48,3275.92,2939.97,3353.14,599.54,587.71,35.07,0000 0000 0000 0000 000000
2017-06-19 01:34:36,0.03,0.55,0.00,24.38,28.53,31.18,13.74,46.04,1007.80,2026.76,3275.49,2939.92,3353.03,600.04,588.17,35.12,0000 0000 0000 0000 000000
2017-06-19 01:39:37,0.02,0.55,0.00,24.36,28.51,31.14,13.76,45.96,1007.78,2026.94,3275.06,2939.92,3353.01,599.77,587.98,35.17,0000 0000 0000 0000 000000
2017-06-19 01:44:38,0.01,0.55,0.00,24.35,28.50,31.12,13.72,45.87,1007.79,2026.97,3275.00,2939.65,3353.00,599.85,588.03,35.22,0000 0000 0000 0000 000000
2017-06-19 01:49:39,-0.00,0.55,0.00,24.39,28.47,31.06,13.72,45.88,1007.80,2026.99,3274.96,2939.83,3352.99,599.76,587.94,35.27,0000 0000 0000 0000 000000
2017-06-19 01:54:41,-0.00,0.55,0.00,24.46,28.46,31.06,13.74,45.96,1007.79,2026.99,3274.97,2939.92,3352.99,599.86,587.83,35.32,0000 0000 0000 0000 000000
2017-06-19 01:59:42,0.02,0.55,0.00,24.50,28.45,31.03,13.72,46.01,1007.67,2026.99,3274.54,2939.56,3352.97,600.10,587.95,35.37,0000 0000 0000 0000 000000
2017-06-19 02:04:43,0.01,0.55,0.00,24.50,28.45,31.00,13.67,46.22,1007.50,2027.01,3274.05,2939.19,3352.83,599.86,587.58,35.42,0000 0000 0000 0000 000000
2017-06-19 02:09:45,0.01,0.55,0.00,24.56,28.45,30.94,13.81,46.28,1007.53,2027.01,3273.96,2939.05,3352.24,600.25,587.87,35.47,0000 0000 0000 0000 000000
2017-06-19 02:14:46,0.01,0.55,0.00,24.67,28.45,30.91,13.74,46.14,1007.37,2027.01,3273.67,2939.01,3352.04,600.01,587.36,35.52,0000 0000 0000 0000 000000
2017-06-19 02:19:47,0.01,0.55,0.00,24.79,28.47,30.91,13.73,46.10,1007.36,2027.01,3273.16,2938.99,3351.99,600.14,587.22,35.57,0000 0000 0000 0000 000000
2017-06-19 02:24:48,0.02,0.55,0.00,24.85,28.48,30.94,13.74,46.09,1007.35,2027.00,3272.97,2938.74,3351.72,599.97,586.87,35.62,0000 0000 0000 0000 000000
2017-06-19 02:29:50,0.03,0.56,0.00,24.85,28.50,30.98,13.63,46.17,1007.35,2027.00,3272.57,2938.07,3351.07,600.03,586.93,35.68,0000 0000 0000 0000 000000
2017-06-19 02:34:51,0.00,0.56,0.00,24.79,28.52,31.03,13.73,46.05,1007.35,2027.00,3272.01,2938.00,3350.93,599.82,586.86,35.73,0000 0000 0000 0000 000000
2017-06-19 02:39:52,0.02,0.56,0.00,24.73,28.54,31.10,13.70,45.91,1007.35,2027.00,3271.62,2937.93,3350.32,600.02,587.18,35.78,0000 0000 0000 0000 000000
2017-06-19 02:44:54,0.02,0.56,0.00,24.69,28.55,31.13,13.78,45.93,1007.37,2026.99,3271.02,2937.45,3350.00,600.25,587.51,35.83,0000 0000 0000 0000 000000
2017-06-19 02:49:55,0.01,0.56,0.00,24.66,28.55,31.17,13.78,46.00,1007.35,2026.99,3270.77,2937.07,3349.96,600.31,587.62,35.88,0000 0000 0000 0000 000000
2017-06-19 02:54:56,0.02,0.56,0.00,24.63,28.55,31.16,13.66,45.92,1007.35,2026.99,3270.08,2937.01,3349.37,599.99,587.33,35.93,0000 0000 0000 0000 000000
2017-06-19 02:59:58,0.01,0.56,0.00,24.61,28.55,31.16,13.77,45.96,1007.35,2026.99,3269.68,2937.00,3349.02,600.19,587.59,35.98,0000 0000 0000 0000 000000
2017-06-19 03:04:59,0.00,0.56,0.00,24.60,28.55,31.15,13.69,46.00,1007.34,2026.99,3269.17,2937.00,3348.99,599.87,587.24,36.03,0000 0000 0000 0000 000000
2017-06-19 03:10:00,0.00,0.56,0.00,24.57,28.55,31.13,13.68,45.92,1007.34,2027.01,3269.04,2936.97,3348.98,600.08,587.66,36.08,0000 0000 0000 0000 000000
2017-06-19 03:15:01,0.00,0.56,0.00,24.55,28.55,31.12,13.81,45.95,1007.34,2027.00,3269.02,2936.97,3348.98,600.18,587.72,36.13,0000 0000 0000 0000 000000
2017-06-19 03:20:03,0.01,0.56,0.00,24.55,28.52,31.10,13.76,46.04,1007.34,2027.00,3268.99,2936.86,3348.87,600.17,587.77,36.18,0000 0000 0000 0000 000000
2017-06-19 03:25:04,0.04,0.56,0.00,24.54,28.52,31.08,13.77,45.92,1007.34,2027.00,3268.39,2936.31,3348.23,600.52,588.06,36.23,0000 0000 0000 0000 000000
2017-06-19 03:30:05,0.01,0.57,0.00,24.52,28.50,31.06,13.70,45.85,1007.34,2027.04,3268.02,2936.10,3348.02,599.83,587.46,36.28,0000 0000 0000 0000 000000
2017-06-19 03:35:06,0.01,0.57,0.00,24.50,28.50,31.04,13.71,45.94,1007.34,2027.05,3267.97,2936.04,3348.00,600.14,587.65,36.33,0000 0000 0000 0000 000000
2017-06-19 03:40:08,0.01,0.57,0.00,24.50,28.48,31.02,13.70,45.90,1007.34,2027.09,3267.73,2936.01,3347.99,599.99,587.66,36.38,0000 0000 0000 0000 000000
2017-06-19 03:45:09,0.03,0.57,0.00,24.50,28.47,31.01,13.70,45.90,1007.34,2027.24,3267.24,2936.00,3347.97,600.02,587.53,36.43,0000 0000 0000 0000 000000
2017-06-19 03:50:11,0.04,0.57,0.00,24.50,28.45,30.99,13.73,45.83,1007.35,2027.61,3267.06,2936.01,3347.98,600.02,587.60,36.48,0000 0000 0000 0000 000000
2017-06-19 03:55:12,0.01,0.57,0.00,24.47,28.44,30.97,13.68,45.82,1007.35,2027.80,3266.98,2936.00,3347.68,599.87,587.55,36.54,0000 0000 0000 0000 000000
2017-06-19 04:00:13,0.03,0.57,0.00,24.48,28.42,30.96,13.75,45.80,1007.35,2027.92,3266.70,2936.00,3347.15,600.03,587.67,36.59,0000 0000 0000 0000 000000
2017-06-19 04:05:15,0.01,0.57,0.00,24.50,28.41,30.93,13.70,45.73,1007.36,2027.97,3266.20,2936.00,3347.02,600.13,587.75,36.64,0000 0000 0000 0000 000000
2017-06-19 04:10:16,-0.00,0.57,0.00,24.50,28.40,30.92,13.76,45.78,1007.35,2027.96,3266.02,2936.00,3347.01,600.36,587.89,36.69,0000 0000 0000 0000 000000
2017-06-19 04:15:17,0.00,0.57,0.00,24.50,28.39,30.90,13.71,45.81,1007.35,2027.99,3266.00,2936.00,3347.00,599.79,587.50,36.74,0000 0000 0000 0000 000000
2017-06-19 04:20:18,0.00,0.57,0.00,24.50,28.37,30.89,13.68,45.70,1007.34,2027.99,3265.98,2935.98,3347.00,599.82,587.51,36.79,0000 0000 0000 0000 000000
2017-06-19 04:25:19,0.00,0.57,0.00,24.50,28.37,30.89,13.75,45.67,1007.34,2027.99,3265.78,2935.96,3346.99,600.28,587.92,36.84,0000 0000 0000 0000 000000
2017-06-19 04:30:21,0.01,0.57,0.00,24.52,28.35,30.88,13.77,45.65,1007.34,2027.99,3265.37,2935.96,3346.99,600.04,587.58,36.89,0000 0000 0000 0000 000000
2017-06-19 04:35:22,0.00,0.57,0.00,24.52,28.35,30.86,13.68,45.63,1007.34,2027.99,3265.12,2935.94,3346.98,599.95,587.64,36.94,0000 0000 0000 0000 000000
2017-06-19 04:40:23,0.00,0.57,0.00,24.51,28.35,30.85,13.70,45.57,1007.34,2028.01,3265.03,2935.91,3346.94,599.91,587.51,36.99,0000 0000 0000 0000 000000
2017-06-19 04:45:24,0.01,0.57,0.00,24.52,28.33,30.83,13.72,45.65,1007.34,2028.01,3265.00,2935.66,3346.74,600.04,587.51,37.04,0000 0000 0000 0000 000000
2017-06-19 04:50:25,0.02,0.57,0.00,24.53,28.32,30.83,13.69,45.60,1007.35,2028.00,3264.85,2935.18,3346.20,599.96,587.53,37.09,0000 0000 0000 0000 000000
2017-06-19 04:55:26,0.01,0.58,0.00,24.55,28.32,30.83,13.75,45.70,1007.37,2028.01,3264.16,2935.05,3346.01,599.78,587.23,37.14,0000 0000 0000 0000 000000
2017-06-19 05:00:28,0.01,0.58,0.00,24.56,28.32,30.82,13.73,45.63,1007.46,2028.04,3264.00,2935.00,3346.00,600.20,587.81,37.19,0000 0000 0000 0000 000000
2017-06-19 05:05:29,0.00,0.58,0.00,24.57,28.32,30.82,13.73,45.63,1007.54,2028.02,3263.94,2935.00,3345.98,600.13,587.75,37.24,0000 0000 0000 0000 000000
2017-06-19 05:10:30,0.02,0.58,0.00,24.59,28.32,30.81,13.69,45.64,1007.60,2028.04,3263.38,2934.98,3345.68,600.06,587.63,37.29,0000 0000 0000 0000 000000
2017-06-19 05:15:31,0.01,0.58,0.00,24.59,28.32,30.81,13.71,45.60,1007.46,2028.05,3263.04,2934.89,3345.25,600.10,587.53,37.34,0000 0000 0000 0000 000000
2017-06-19 05:20:33,0.02,0.58,0.00,24.55,28.32,30.81,13.72,45.58,1007.39,2028.04,3262.99,2934.32,3345.02,600.08,587.61,37.39,0000 0000 0000 0000 000000
2017-06-19 05:25:34,0.00,0.58,0.00,24.42,28.31,30.84,13.69,45.67,1007.43,2028.05,3262.99,2934.16,3345.00,599.91,587.76,37.44,0000 0000 0000 0000 000000
2017-06-19 05:30:35,0.01,0.58,0.00,24.31,28.30,30.88,13.76,45.68,1007.44,2028.05,3262.69,2934.08,3345.00,600.13,588.18,37.50,0000 0000 0000 0000 000000
2017-06-19 05:35:36,0.02,0.58,0.00,24.26,28.30,30.87,13.71,45.73,1007.38,2028.14,3262.15,2934.02,3344.99,599.96,588.16,37.55,0000 0000 0000 0000 000000
2017-06-19 05:40:38,0.01,0.58,0.00,24.30,28.27,30.86,13.72,45.73,1007.36,2028.28,3262.13,2934.02,3344.96,599.83,587.87,37.60,0000 0000 0000 0000 000000
2017-06-19 05:45:39,0.02,0.58,0.00,24.28,28.27,30.88,13.73,45.77,1007.37,2028.49,3261.96,2934.00,3344.80,599.99,588.05,37.65,0000 0000 0000 0000 000000
2017-06-19 05:50:40,0.04,0.58,0.00,24.27,28.26,30.85,13.75,45.89,1007.36,2028.63,3261.69,2934.00,3344.43,599.91,588.08,37.70,0000 0000 0000 0000 000000
2017-06-19 05:55:42,0.01,0.58,0.00,24.29,28.25,30.78,13.68,45.94,1007.37,2028.65,3261.05,2933.99,3344.03,599.75,587.84,37.75,0000 0000 0000 0000 000000
2017-06-19 06:00:43,-0.00,0.58,0.00,24.32,28.25,30.76,13.72,46.02,1007.38,2028.60,3260.96,2933.87,3344.00,599.92,587.93,37.80,0000 0000 0000 0000 000000
2017-06-19 06:05:44,-0.00,0.58,0.00,24.35,28.27,30.74,13.74,46.00,1007.41,2028.44,3260.81,2933.43,3343.98,600.00,587.93,37.85,0000 0000 0000 0000 000000
2017-06-19 06:10:45,0.02,0.59,0.00,24.38,28.27,30.76,13.78,46.12,1007.42,2028.34,3260.28,2933.09,3343.84,600.17,588.14,37.90,0000 0000 0000 0000 000000
2017-06-19 06:15:47,-0.01,0.59,0.00,24.43,28.30,30.78,13.75,46.02,1007.54,2028.10,3260.00,2933.00,3343.18,600.01,588.03,37.95,0000 0000 0000 0000 000000
2017-06-19 06:20:48,-0.00,0.59,0.00,24.46,28.32,30.82,13.66,46.03,1007.66,2028.02,3259.82,2932.99,3343.00,599.85,587.73,38.00,0000 0000 0000 0000 000000
2017-06-19 06:25:49,0.02,0.59,0.00,24.50,28.34,30.87,13.74,46.08,1007.60,2028.01,3259.30,2932.68,3342.91,600.15,587.97,38.05,0000 0000 0000 0000 000000
2017-06-19 06:30:50,0.02,0.59,0.00,24.52,28.36,30.90,13.84,46.05,1007.67,2028.00,3259.00,2932.11,3342.25,600.44,588.26,38.10,0000 0000 0000 0000 000000
2017-06-19 06:35:52,0.01,0.59,0.00,24.52,28.39,30.94,13.70,46.07,1007.68,2028.00,3258.79,2932.01,3342.02,599.82,587.62,38.15,0000 0000 0000 0000 000000
2017-06-19 06:40:53,0.01,0.59,0.00,24.54,28.42,30.99,13.71,46.08,1007.60,2028.00,3258.38,2931.98,3341.96,599.65,587.36,38.20,0000 0000 0000 0000 000000
2017-06-19 06:45:54,0.03,0.59,0.00,24.55,28.45,31.03,13.77,46.14,1007.72,2027.95,3258.01,2931.40,3341.33,600.01,587.68,38.25,0000 0000 0000 0000 000000
2017-06-19 06:50:55,-0.00,0.59,0.00,24.55,28.47,31.07,13.76,46.15,1007.79,2027.82,3257.77,2931.02,3341.01,599.86,587.66,38.30,0000 0000 0000 0000 000000
2017-06-19 06:55:57,-0.02,0.59,0.00,24.58,28.50,31.10,13.70,46.09,1007.83,2027.50,3257.16,2931.00,3340.97,600.10,587.91,38.36,0000 0000 0000 0000 000000
2017-06-19 07:00:58,-0.01,0.59,0.00,24.60,28.53,31.14,13.72,46.09,1007.83,2027.17,3256.98,2930.87,3340.61,600.03,587.74,38.41,0000 0000 0000 0000 000000
2017-06-19 07:05:59,0.03,0.59,0.00,24.63,28.56,31.16,13.81,46.26,1007.83,2027.04,3256.55,2930.22,3340.05,600.27,587.91,38.46,0000 0000 0000 0000 000000
2017-06-19 07:11:00,0.01,0.59,0.00,24.65,28.58,31.19,13.73,46.14,1007.85,2027.01,3256.02,2930.01,3339.91,600.10,587.68,38.51,0000 0000 0000 0000 000000
2017-06-19 07:16:01,0.02,0.59,0.00,24.67,28.61,31.22,13.72,46.17,1007.98,2027.00,3255.71,2929.98,3339.31,600.09,587.64,38.56,0000 0000 0000 0000 000000
2017-06-19 07:21:03,0.02,0.59,0.00,24.70,28.63,31.23,13.74,46.19,1008.27,2027.00,3255.02,2929.68,3338.99,599.98,587.75,38.61,0000 0000 0000 0000 000000
2017-06-19 07:26:04,0.01,0.59,0.00,24.72,28.65,31.27,13.72,46.10,1008.30,2027.00,3255.00,2929.13,3338.96,600.01,587.77,38.66,0000 0000 0000 0000 000000
2017-06-19 07:31:05,0.01,0.59,0.00,24.77,28.67,31.30,13.73,46.17,1008.31,2026.99,3254.81,2929.00,3338.56,600.06,587.72,38.71,0000 0000 0000 0000 000000
2017-06-19 07:36:06,0.01,0.59,0.00,24.78,28.70,31.33,13.72,46.05,1008.31,2026.97,3254.36,2929.00,3338.13,600.25,587.83,38.76,0000 0000 0000 0000 000000
2017-06-19 07:41:08,-0.00,0.59,0.00,24.82,28.72,31.36,13.73,45.91,1008.32,2026.95,3254.15,2928.99,3338.02,600.35,587.86,38.81,0000 0000 0000 0000 000000
2017-06-19 07:46:09,-0.02,0.59,0.00,24.78,28.74,31.37,13.72,45.91,1008.32,2026.72,3254.02,2928.92,3338.00,600.08,587.66,38.86,0000 0000 0000 0000 000000
2017-06-19 07:51:10,-0.02,0.59,0.00,24.68,28.75,31.51,13.78,46.11,1008.32,2026.40,3254.00,2928.60,3337.98,600.09,587.83,38.91,0000 0000 0000 0000 000000
2017-06-19 07:56:11,-0.02,0.59,0.00,24.58,28.76,31.69,13.71,45.90,1008.34,2026.28,3254.00,2928.57,3337.98,599.94,588.04,38.96,0000 0000 0000 0000 000000
2017-06-19 08:01:12,0.01,0.59,0.00,24.52,28.76,31.74,13.75,45.84,1008.45,2026.17,3253.97,2928.21,3337.94,599.75,588.00,39.01,0000 0000 0000 0000 000000
2017-06-19 08:06:14,0.02,0.59,0.00,24.47,28.75,31.72,13.77,45.91,1008.58,2026.17,3253.59,2928.05,3337.70,600.22,588.58,39.06,0000 0000 0000 0000 000000
2017-06-19 08:11:15,0.03,0.59,0.00,24.42,28.75,31.71,13.78,45.98,1008.62,2026.47,3253.45,2928.12,3337.76,599.93,588.41,39.11,0000 0000 0000 0000 000000
2017-06-19 08:16:16,0.01,0.60,0.00,24.39,28.72,31.67,13.77,46.03,1008.74,2026.72,3253.26,2928.23,3337.84,599.90,588.49,39.16,0000 0000 0000 0000 000000
2017-06-19 08:21:17,0.03,0.60,0.00,24.36,28.71,31.61,13.82,45.96,1008.80,2026.89,3253.05,2928.18,3337.49,599.94,588.78,39.21,0000 0000 0000 0000 000000
2017-06-19 08:26:19,0.00,0.60,0.00,24.36,28.68,31.56,13.78,45.92,1008.78,2026.93,3253.00,2928.06,3337.23,599.83,588.60,39.26,0000 0000 0000 0000 000000
2017-06-19 08:31:20,0.00,0.60,0.00,24.42,28.66,31.43,13.75,46.02,1008.80,2026.96,3253.00,2928.07,3337.23,599.97,588.45,39.31,0000 0000 0000 0000 000000
2017-06-19 08:36:21,-0.00,0.60,0.00,24.47,28.64,31.37,13.79,45.83,1008.80,2026.98,3253.00,2928.11,3337.25,599.83,588.34,39.37,0000 0000 0000 0000 000000
2017-06-19 08:41:22,0.00,0.60,0.00,24.50,28.62,31.34,13.75,45.93,1008.81,2026.99,3252.98,2928.08,3337.11,600.07,588.56,39.42,0000 0000 0000 0000 000000
2017-06-19 08:46:24,0.00,0.60,0.00,24.55,28.62,31.21,13.81,45.96,1008.81,2026.99,3252.97,2928.06,3337.01,600.08,588.47,39.47,0000 0000 0000 0000 000000
2017-06-19 08:51:25,0.00,0.60,0.00,24.64,28.62,31.14,13.75,45.98,1008.83,2026.99,3252.65,2928.02,3337.00,599.79,588.05,39.52,0000 0000 0000 0000 000000
2017-06-19 08:56:27,0.01,0.60,0.00,24.72,28.62,31.08,13.70,45.94,1008.92,2026.98,3252.10,2928.00,3337.00,599.99,588.09,39.57,0000 0000 0000 0000 000000
2017-06-19 09:01:28,0.00,0.60,0.00,24.71,28.62,31.08,13.68,45.89,1009.27,2026.97,3252.01,2928.00,3336.97,600.08,588.40,39.62,0000 0000 0000 0000 000000
2017-06-19 09:06:29,0.00,0.60,0.00,24.66,28.62,31.12,13.75,45.84,1009.29,2026.97,3251.99,2927.99,3336.57,599.93,588.36,39.67,0000 0000 0000 0000 000000
2017-06-19 09:11:31,0.00,0.60,0.00,24.61,28.62,31.18,13.75,45.90,1009.31,2026.96,3251.89,2927.94,3336.10,600.10,588.71,39.72,0000 0000 0000 0000 000000
2017-06-19 09:16:32,0.03,0.60,0.00,24.60,28.62,31.21,13.73,45.89,1009.31,2026.96,3251.13,2927.60,3336.00,599.87,588.55,39.77,0000 0000 0000 0000 000000
2017-06-19 09:21:33,0.00,0.60,0.00,24.59,28.62,31.22,13.71,45.77,1009.31,2026.98,3250.97,2927.27,3335.98,600.08,588.69,39.82,0000 0000 0000 0000 000000
2017-06-19 09:26:34,0.01,0.60,0.00,24.56,28.62,31.20,13.73,45.84,1009.32,2026.98,3250.70,2927.08,3335.94,599.99,588.59,39.87,0000 0000 0000 0000 000000
2017-06-19 09:31:36,0.01,0.60,0.00,24.55,28.61,31.19,13.78,45.81,1009.34,2026.99,3250.19,2927.02,3335.55,600.15,588.79,39.92,0000 0000 0000 0000 000000
2017-06-19 09:36:37,0.01,0.60,0.00,24.56,28.60,31.17,13.73,45.88,1009.32,2026.99,3250.02,2927.00,3335.11,600.11,588.78,39.97,0000 0000 0000 0000 000000
2017-06-19 09:41:39,0.00,0.60,0.00,24.58,28.60,31.14,13.79,45.83,1009.35,2026.99,3249.82,2927.00,3335.00,600.27,588.78,40.02,0000 0000 0000 0000 000000
2017-06-19 09:46:40,0.01,0.60,0.00,24.62,28.58,31.11,13.76,45.84,1009.44,2026.99,3249.17,2926.94,3334.95,600.04,588.65,40.07,0000 0000 0000 0000 000000
2017-06-19 09:51:41,0.02,0.60,0.00,24.62,28.57,31.08,13.80,45.84,1009.40,2026.99,3249.00,2926.71,3334.54,599.93,588.50,40.12,0000 0000 0000 0000 000000
2017-06-19 09:56:42,0.02,0.61,0.00,24.62,28.56,31.07,13.78,45.91,1009.48,2026.99,3248.67,2926.15,3334.06,600.28,588.76,40.17,0000 0000 0000 0000 000000
2017-06-19 10:01:43,0.00,0.61,0.00,24.60,28.55,31.06,13.73,45.85,1009.56,2026.99,3248.06,2926.02,3334.00,600.13,588.81,40.22,0000 0000 0000 0000 000000
2017-06-19 10:06:44,0.00,0.61,0.00,24.58,28.55,31.05,13.79,45.89,1009.76,2026.99,3247.85,2926.00,3333.92,600.05,588.83,40.28,0000 0000 0000 0000 000000
2017-06-19 10:11:46,0.03,0.61,0.00,24.56,28.52,31.03,13.76,45.90,1009.78,2027.01,3246.84,2925.99,3333.14,600.02,588.97,40.33,0000 0000 0000 0000 000000
2017-06-19 10:16:47,0.02,0.61,0.00,24.55,28.52,31.01,13.76,45.88,1009.79,2027.03,3246.09,2925.73,3332.96,600.17,589.19,40.38,0000 0000 0000 0000 000000
2017-06-19 10:21:48,0.04,0.61,0.00,24.55,28.50,31.01,13.82,45.92,1009.78,2027.03,3245.67,2925.06,3332.18,600.38,589.32,40.43,0000 0000 0000 0000 000000
2017-06-19 10:26:50,0.03,0.61,0.00,24.57,28.50,30.99,13.79,45.88,1009.78,2027.09,3244.69,2924.99,3331.80,600.06,588.98,40.48,0000 0000 0000 0000 000000
2017-06-19 10:31:51,0.03,0.61,0.00,24.57,28.47,30.97,13.76,45.77,1009.79,2027.18,3244.10,2924.86,3331.27,599.75,588.75,40.53,0000 0000 0000 0000 000000
2017-06-19 10:36:52,0.03,0.62,0.00,24.57,28.46,30.96,13.77,45.75,1009.80,2027.32,3243.96,2924.26,3331.04,600.08,589.06,40.58,0000 0000 0000 0000 000000
2017-06-19 10:41:54,0.01,0.62,0.00,24.56,28.45,30.95,13.69,45.90,1009.99,2027.24,3243.55,2924.00,3330.95,599.58,588.62,40.63,0000 0000 0000 0000 000000
2017-06-19 10:46:55,0.02,0.62,0.00,24.58,28.45,30.93,13.77,45.97,1009.96,2027.20,3242.82,2923.71,3330.18,599.83,588.87,40.68,0000 0000 0000 0000 000000
2017-06-19 10:51:56,0.05,0.62,0.00,24.65,28.42,30.87,13.77,45.81,1009.84,2027.37,3241.99,2923.04,3329.83,599.70,588.56,40.73,0000 0000 0000 0000 000000
2017-06-19 10:56:57,0.04,0.62,0.00,24.71,28.42,30.81,13.73,45.66,1009.89,2027.53,3241.10,2922.78,3329.03,599.83,588.54,40.78,0000 0000 0000 0000 000000
2017-06-19 11:01:58,0.05,0.63,0.00,24.80,28.42,30.78,13.80,45.72,1010.14,2027.56,3240.26,2922.05,3328.39,600.04,588.69,40.83,0000 0000 0000 0000 000000
